Weather History for Albert Lea, MN

Change the Weather History Date:

Wednesday, January 23, 2013

  Actual Average Record
Temperature  
Mean Temperature 10 °F -  
Max Temperature 19 °F 20 °F 37 °F (2006)
Min Temperature 0 °F 7 °F -20 °F (2011)
Degree Days  
Heating Degree Days 55    
Moisture  
Dew Point 6 °F    
Average Humidity 77    
Maximum Humidity 93    
Minimum Humidity 61    
Precipitation  
Precipitation 0.00 in - - ()
Sea Level Pressure  
Sea Level Pressure 30.22 in    
Wind  
Wind Speed 8 mph (WNW)    
Max Wind Speed 22 mph    
Max Gust Speed 33 mph    
Visibility 8 miles    
Events Snow    
Averages and records for this station are not official NWS values.
T = Trace of Precipitation, MM = Missing Value Source: NWS Daily Summary

Daily Weather History Graph

Daily Weather History Graph

Search for Another Location

Airport:

Trip Planner

Search our weather history database for the weather conditions in past years. The results will help you decide how hot, cold, wet, or windy it might be!

Date:

Astronomy

Jan. 23, 2013 Rise Set
Actual Time 7:38 AM CST 5:12 PM CST
Civil Twilight 7:07 AM CST 5:44 PM CST
Nautical Twilight 6:32 AM CST 6:19 PM CST
Astronomical Twilight 5:58 AM CST 6:53 PM CST
Moon 2:22 PM CST (1/23) 4:52 AM CST (1/23)
Length of Visible Light 10h 36m
Length of Day
9h 34m
Waxing Gibbous, 89% of the Moon is Illuminated
Jan 23
Waxing Gibbous
Jan 26
Full
Feb 3
Last Quarter
Feb 10
New
Feb 17
First Quarter

Hourly Weather History & Observations

Time (CST) Temp. Windchill Dew Point Humidity Pressure Visibility Wind Dir Wind Speed Gust Speed Precip Events Conditions
12:11 AM 12.2 °F 1.7 °F 6.8 °F 79% 30.20 in 10.0 mi SSW 6.9 mph - N/A   Overcast
12:31 AM 12.2 °F 1.7 °F 6.8 °F 79% 30.19 in 10.0 mi SSW 6.9 mph - N/A Snow Light Snow
12:51 AM 12.2 °F 1.7 °F 8.6 °F 85% 30.18 in 10.0 mi SSW 6.9 mph - N/A   Overcast
1:11 AM 12.2 °F 2.9 °F 8.6 °F 85% 30.18 in 7.0 mi SSW 5.8 mph - N/A Snow Light Snow
1:31 AM 12.2 °F 2.9 °F 8.6 °F 85% 30.17 in 7.0 mi SSW 5.8 mph - N/A Snow Light Snow
1:51 AM 12.2 °F 2.9 °F 8.6 °F 85% 30.17 in 7.0 mi SSW 5.8 mph - N/A Snow Light Snow
2:11 AM 12.2 °F 2.9 °F 8.6 °F 85% 30.17 in 7.0 mi SSW 5.8 mph - N/A Snow Light Snow
2:31 AM 12.2 °F 1.7 °F 8.6 °F 85% 30.17 in 5.0 mi SSW 6.9 mph - N/A Snow Light Snow
2:51 AM 12.2 °F 4.3 °F 10.4 °F 92% 30.16 in 3.0 mi South 4.6 mph - N/A Snow Light Snow
3:11 AM 12.2 °F 1.7 °F 10.4 °F 92% 30.14 in 5.0 mi South 6.9 mph - N/A Snow Light Snow
3:31 AM 12.2 °F 4.3 °F 10.4 °F 92% 30.14 in 7.0 mi South 4.6 mph - N/A Snow Light Snow
3:51 AM 12.2 °F 2.9 °F 10.4 °F 92% 30.13 in 10.0 mi South 5.8 mph - N/A Snow Light Snow
4:10 AM 12.2 °F 1.7 °F 10.4 °F 92% 30.12 in 10.0 mi South 6.9 mph - N/A Snow Light Snow
4:31 AM 12.2 °F 4.3 °F 10.4 °F 92% 30.12 in 3.0 mi SSW 4.6 mph - N/A Snow Light Snow
4:51 AM 12.2 °F 2.9 °F 10.4 °F 92% 30.11 in 3.0 mi SSW 5.8 mph - N/A Snow Light Snow
5:10 AM 14.0 °F 8.2 °F 10.4 °F 86% 30.11 in 4.0 mi SSW 3.5 mph - N/A Snow Light Snow
5:31 AM 14.0 °F 8.2 °F 12.2 °F 93% 30.12 in 7.0 mi SSW 3.5 mph - N/A Snow Light Snow
5:51 AM 14.0 °F 8.2 °F 12.2 °F 93% 30.12 in 7.0 mi SW 3.5 mph - N/A Snow Light Snow
6:10 AM 14.0 °F - 12.2 °F 93% 30.11 in 3.0 mi Calm Calm - N/A Snow Light Snow
6:31 AM 15.8 °F 10.2 °F 12.2 °F 86% 30.11 in 5.0 mi SW 3.5 mph - N/A Snow Light Snow
6:51 AM 15.8 °F 10.2 °F 12.2 °F 86% 30.10 in 10.0 mi SW 3.5 mph - N/A Snow Light Snow
7:10 AM 15.8 °F 10.2 °F 12.2 °F 86% 30.10 in 10.0 mi WSW 3.5 mph - N/A   Overcast
7:31 AM 15.8 °F 10.2 °F 12.2 °F 86% 30.10 in 10.0 mi WSW 3.5 mph - N/A   Overcast
7:51 AM 15.8 °F 10.2 °F 12.2 °F 86% 30.10 in 10.0 mi West 3.5 mph - N/A   Overcast
8:10 AM 17.6 °F 10.7 °F 12.2 °F 79% 30.11 in 10.0 mi West 4.6 mph - N/A   Overcast
8:31 AM 17.6 °F 10.7 °F 12.2 °F 79% 30.12 in 10.0 mi West 4.6 mph - N/A Snow Light Snow
8:51 AM 17.6 °F 8.2 °F 14.0 °F 86% 30.13 in 7.0 mi West 6.9 mph - N/A Snow Light Snow
9:10 AM 17.6 °F 8.2 °F 14.0 °F 86% 30.13 in 5.0 mi WNW 6.9 mph - N/A Snow Light Snow
9:31 AM 17.6 °F 5.7 °F 14.0 °F 86% 30.13 in 7.0 mi NW 10.4 mph 16.1 mph N/A Snow Light Snow
9:51 AM 17.6 °F 5.7 °F 12.2 °F 79% 30.14 in 5.0 mi NW 10.4 mph - N/A Snow Light Snow
10:11 AM 17.6 °F 5.0 °F 12.2 °F 79% 30.14 in 7.0 mi WNW 11.5 mph 17.3 mph N/A   Overcast
10:31 AM 17.6 °F 9.3 °F 12.2 °F 79% 30.15 in 10.0 mi NW 5.8 mph - N/A   Mostly Cloudy
10:51 AM 17.6 °F 5.7 °F 12.2 °F 79% 30.16 in 10.0 mi NW 10.4 mph 16.1 mph N/A   Mostly Cloudy
11:11 AM 17.6 °F 4.3 °F 10.4 °F 73% 30.17 in 10.0 mi NNW 12.7 mph 17.3 mph N/A   Scattered Clouds
11:31 AM 17.6 °F 3.7 °F 12.2 °F 79% 30.16 in 10.0 mi NNW 13.8 mph 20.7 mph N/A   Overcast
11:51 AM 17.6 °F 8.2 °F 12.2 °F 79% 30.16 in 5.0 mi NW 6.9 mph 19.6 mph N/A Snow Light Snow
12:11 PM 17.6 °F 5.7 °F 12.2 °F 79% 30.16 in 7.0 mi NW 10.4 mph 18.4 mph N/A   Overcast
12:31 PM 19.4 °F 6.6 °F 12.2 °F 74% 30.15 in 10.0 mi NW 12.7 mph 20.7 mph N/A   Mostly Cloudy
12:51 PM 17.6 °F 4.3 °F 12.2 °F 79% 30.15 in 4.0 mi NW 12.7 mph 24.2 mph N/A Snow Light Snow
1:11 PM 17.6 °F 3.2 °F 12.2 °F 79% 30.14 in 4.0 mi WNW 15.0 mph 23.0 mph N/A Snow Light Snow
1:31 PM 17.6 °F 2.7 °F 10.4 °F 73% 30.15 in 10.0 mi WNW 16.1 mph 27.6 mph N/A   Mostly Cloudy
1:50 PM 17.6 °F 2.7 °F 10.4 °F 73% 30.16 in 5.0 mi NW 16.1 mph 28.8 mph N/A Snow Light Snow
2:11 PM 17.6 °F 3.7 °F 8.6 °F 68% 30.16 in 10.0 mi WNW 13.8 mph 24.2 mph N/A   Scattered Clouds
2:31 PM 17.6 °F 3.7 °F 6.8 °F 63% 30.17 in 10.0 mi WNW 13.8 mph 26.5 mph N/A   Clear
2:50 PM 15.8 °F 1.4 °F 6.8 °F 68% 30.20 in 10.0 mi NW 13.8 mph 23.0 mph N/A   Clear
3:04 PM 15.8 °F -0.2 °F 6.8 °F 68% 30.21 in 10.0 mi WNW 17.3 mph 26.5 mph N/A   Clear
3:31 PM 12.2 °F -4.8 °F 5.0 °F 73% 30.22 in 10.0 mi NW 17.3 mph 28.8 mph N/A   Clear
3:51 PM 12.2 °F -4.3 °F 5.0 °F 73% 30.23 in 10.0 mi NW 16.1 mph 25.3 mph N/A   Clear
4:11 PM 12.2 °F -1.8 °F 3.2 °F 67% 30.24 in 10.0 mi NW 11.5 mph 26.5 mph N/A   Clear
4:31 PM 12.2 °F -1.8 °F 3.2 °F 67% 30.25 in 10.0 mi NW 11.5 mph - N/A   Scattered Clouds
4:51 PM 10.4 °F -8.6 °F -0.4 °F 62% 30.26 in 10.0 mi NNW 20.7 mph 28.8 mph N/A   Clear
5:11 PM 8.6 °F -11.0 °F -2.2 °F 62% 30.28 in 10.0 mi NW 20.7 mph 31.1 mph N/A   Clear
5:31 PM 6.8 °F -13.8 °F -2.2 °F 67% 30.29 in 10.0 mi NNW 21.9 mph 33.4 mph N/A   Clear
5:51 PM 6.8 °F -11.3 °F -2.2 °F 67% 30.31 in 10.0 mi NW 16.1 mph 26.5 mph N/A   Clear
6:11 PM 6.8 °F -11.8 °F -2.2 °F 67% 30.34 in 10.0 mi NW 17.3 mph 25.3 mph N/A   Clear
6:31 PM 5.0 °F -12.3 °F -4.0 °F 66% 30.34 in 10.0 mi NNW 13.8 mph 24.2 mph N/A   Clear
6:51 PM 3.2 °F -13.9 °F -4.0 °F 72% 30.36 in 10.0 mi NNW 12.7 mph 21.9 mph N/A   Clear
7:11 PM 3.2 °F -14.6 °F -4.0 °F 72% 30.37 in 10.0 mi NNW 13.8 mph 21.9 mph N/A   Clear
7:31 PM 3.2 °F -13.9 °F -5.8 °F 66% 30.38 in 10.0 mi NW 12.7 mph 18.4 mph N/A   Clear
7:51 PM 3.2 °F -13.9 °F -5.8 °F 66% 30.40 in 10.0 mi NNW 12.7 mph 19.6 mph N/A   Clear
8:11 PM 3.2 °F -13.9 °F -5.8 °F 66% 30.39 in 10.0 mi NNW 12.7 mph 17.3 mph N/A   Clear
8:30 PM 3.2 °F -13.9 °F -5.8 °F 66% 30.40 in 10.0 mi NNW 12.7 mph 18.4 mph N/A   Clear
9:10 PM 1.4 °F -14.5 °F -5.8 °F 72% 30.42 in 10.0 mi NNW 10.4 mph 18.4 mph N/A   Clear
9:31 PM 1.4 °F -13.5 °F -5.8 °F 72% 30.44 in 10.0 mi North 9.2 mph - N/A   Clear
9:51 PM 1.4 °F -13.5 °F -5.8 °F 72% 30.45 in 10.0 mi NNW 9.2 mph - N/A   Clear
10:10 PM 1.4 °F -12.5 °F -5.8 °F 72% 30.45 in 10.0 mi NNW 8.1 mph - N/A   Clear
10:31 PM 1.4 °F -13.5 °F -7.6 °F 66% 30.46 in 10.0 mi North 9.2 mph - N/A   Clear
10:51 PM 1.4 °F -15.3 °F -9.4 °F 61% 30.47 in 10.0 mi North 11.5 mph 18.4 mph N/A   Clear
11:10 PM 1.4 °F -14.5 °F -9.4 °F 61% 30.49 in 10.0 mi North 10.4 mph - N/A   Clear
11:51 PM -0.4 °F -16.7 °F -9.4 °F 66% 30.52 in 10.0 mi North 10.4 mph - N/A   Clear